Location: Dal�� Lhota
(48.7500°N, 14.0167°E)
Time: 01:55:44
(UTC+00:00)

NOSS 3-2 (C) - Pass Details

Date: 24 September 2020
Orbit: 795 x 1418 km, 63.4° (Epoch: 25 October)

Event Time Altitude Azimuth Distance (km) Brightness Sun altitude
Rises 17:57:19 0° 317° (NW) 3,920 7.6 -10.7°
Reaches altitude 10° 17:59:51 10° 318° (NW) 3,044 6.9 -11.1°
Maximum altitude 18:07:18 89° 37° (NE) 1,275 4.1 -12.3°
Drops below altitude 10° 18:15:46 10° 141° (SE) 3,433 5.9 -13.7°
Enters shadow 18:16:07 - 141° (SE) 3,553 5.9 -13.8°
